#timestamp,LO_Frequency,Hit,StdDev 
1595854815.7,286046999.8,N
1595854835.5,286047002.4,N
1595854855.3,286047002.4,N
1595854875.2,286047001.6,N
1595854895.9,286047002.4,N
1595854915.7,286047001.6,N
1595854935.6,286047001.7,N
1595854955.4,286047001.8,N
1595854975.3,286047002.5,N
1595854995.1,286047002.6,N
1595854996.0,286047002.6,N
1595855015.8,286047002.2,N
1595855035.7,286047001.5,N
1595855055.5,286047001.5,N
1595855075.4,286047001.6,N
1595855095.2,286047001.4,N
1595855115.0,286047001.8,N
1595855115.9,286047001.8,Y
1595855135.8,286047000.3,P
1595855155.6,286046999.9,N
1595855175.4,286047000.1,N
1595855195.3,286047000.1,N
1595855215.1,286047002.0,N
1595855235.9,286047002.2,N
1595855255.7,286047002.6,N
1595855275.5,286047001.9,N
1595855295.4,286047002.4,N
1595855315.2,286046999.7,N
1595855335.1,286047002.7,N
1595855336.0,286047002.7,N
1595855355.8,286046999.8,N
1595855375.6,286046999.8,N
1595855395.5,286047002.5,N
1595855415.3,286047002.0,N
1595855435.1,286046999.9,N
1595855455.9,286046999.9,N
1595855475.7,286046999.8,N
1595855495.6,286046999.9,N
1595855515.4,286047002.2,N
1595855535.2,286046999.8,N
1595855555.1,286047001.0,N
1595855556.0,286047001.0,N
1595855575.8,286047000.0,N
1595855595.7,286046999.9,N
1595855615.5,286047000.2,N
1595855635.3,286047000.0,N
1595855655.2,286046999.9,N
1595855675.0,286047000.1,N
1595855675.9,286047000.1,N
1595855695.7,286047002.2,N
1595855715.6,286047002.1,N
1595855735.4,286047002.4,N
1595855755.3,286047002.0,N
1595855775.1,286047002.2,N
1595855795.8,286047000.1,N
1595855815.7,286047002.3,N
1595855835.5,286047000.1,N
1595855855.4,286047002.7,N
1595855875.2,286047002.8,N
1595855895.0,286047000.2,N
1595855895.9,286047000.2,N
1595855915.8,286047001.8,N
1595855935.6,286047002.1,N
1595855955.4,286047002.6,N
1595855975.3,286047001.3,N
1595855995.1,286047002.7,N
1595856015.9,286047002.7,N
1595856035.7,286047000.1,N
1595856055.5,286047002.4,N
1595856075.4,286047001.9,N
1595856095.2,286047002.2,N
1595856115.1,286047001.6,N
1595856116.0,286047001.6,N
1595856135.8,286047002.1,N
1595856155.6,286047002.1,N
1595856175.5,286047001.8,N
1595856195.3,286047001.9,N
1595856215.2,286047002.1,N
1595856235.9,286047001.6,N
1595856255.7,286047002.1,N
1595856275.6,286047001.7,N
1595856295.4,286047002.0,N
1595856315.3,286047001.5,N
1595856335.1,286047002.0,N
1595856336.0,286047002.0,N
1595856355.8,286047002.3,Y
1595856375.7,286047000.4,P
1595856395.5,286047000.1,N
1595856415.4,286047002.4,P
1595856435.2,286047000.1,N
1595856455.0,286046999.9,N
1595856455.9,286046999.9,N
1595856475.8,286047002.2,N
1595856495.6,286047002.4,N
1595856515.4,286047000.3,N
1595856535.3,286047001.1,N
1595856555.1,286047000.8,N
1595856575.9,286047000.5,N
1595856595.7,286047000.5,N
1595856615.5,286047000.7,N
1595856635.4,286047000.8,N
1595856655.2,286047001.0,N
1595856675.1,286047001.2,N
1595856676.0,286047001.2,N
1595856695.8,286047001.1,N
1595856715.6,286047000.4,N
1595856735.5,286047000.4,N
1595856755.3,286047000.7,N
1595856775.2,286046998.2,N
1595856795.9,286046998.4,N
1595856815.7,286046998.5,N
1595856835.6,286046998.5,N
1595856855.4,286047000.7,N
1595856875.2,286046999.0,N
1595856895.1,286046998.3,N
1595856896.0,286046998.3,N
1595856915.8,286046998.6,N
1595856935.7,286047001.0,N
1595856955.5,286047000.7,N
1595856975.3,286047001.2,N
1595856995.2,286046998.3,N
1595857015.0,286046998.7,N
1595857015.9,286046998.7,N
1595857035.8,286046998.3,N
1595857055.6,286046998.4,N
1595857075.4,286046999.2,N
1595857095.3,286046999.1,N
1595857115.1,286046997.6,N
1595857135.8,286046997.3,N
1595857155.7,286046998.0,N
1595857175.5,286046998.0,N
1595857195.4,286046997.3,N
1595857215.2,286046997.8,N
1595857235.0,286046995.0,Y
1595857235.9,286046995.0,P
1595857255.8,286046994.9,N
1595857275.6,286046995.4,N
1595857295.5,286046996.9,N
1595857315.3,286046999.2,N
1595857335.1,286046999.5,N
1595857355.9,286046999.0,N
1595857375.7,286046999.0,N
1595857395.5,286046999.6,N
1595857415.4,286046997.1,N
1595857435.2,286046998.0,N
1595857455.1,286046995.2,N
1595857456.0,286046995.2,N
1595857475.8,286046995.5,N
1595857495.7,286046995.3,N
1595857515.5,286046997.1,N
1595857535.3,286046996.8,N
1595857555.2,286046997.2,N
1595857575.0,286046999.6,N
1595857575.9,286046999.6,N
1595857595.7,286046996.5,N
1595857615.6,286046996.6,N
1595857635.4,286046999.2,N
1595857655.3,286046999.6,N
1595857675.1,286046998.5,N
1595857695.8,286046999.4,N
1595857715.7,286046997.7,N
1595857735.5,286046996.2,N
1595857755.4,286046993.5,Y
1595857775.2,286046997.2,P
1595857795.0,286046997.8,P
1595857795.9,286046997.8,P
1595857815.8,286046997.4,Y
1595857835.6,286046998.2,P
1595857855.5,286046998.2,P
1595857875.3,286046998.9,P
1595857895.2,286046998.4,Y
1595857915.9,286047001.0,P
1595857935.7,286047001.2,N
1595857955.1,286046998.8,N
1595857956.0,286046998.8,N
1595857975.8,286046998.7,N
1595857995.7,286047001.2,N
1595858015.5,286046999.7,N
1595858035.3,286047000.9,N
1595858055.2,286047002.4,N
1595858075.0,286047002.7,N
1595858075.9,286047002.7,N
1595858095.8,286047001.9,N
1595858115.6,286047002.2,N
1595858135.4,286047001.5,N
1595858155.3,286047002.0,N
1595858175.1,286047002.2,N
1595858195.9,286047002.6,N
1595858215.7,286047001.6,N
1595858235.5,286047002.0,N
1595858255.4,286047001.5,N
1595858275.2,286047002.6,N
1595858295.0,286047002.4,N
1595858295.9,286047002.4,N
1595858315.8,286047001.5,N
1595858335.6,286047002.2,N
1595858355.5,286047001.5,N
1595858375.3,286047002.6,N
1595858395.1,286047002.1,N
